Year,Month,Day,Hour,Minute,Value (Times are PST for temperature in C)
2016,12,15,00,02,-0.30
2016,12,15,00,03,-0.30
2016,12,15,00,04,-0.30
2016,12,15,00,05,-0.30
2016,12,15,00,06,-0.30
2016,12,15,00,07,-0.30
2016,12,15,00,08,-0.30
2016,12,15,00,09,-0.30
2016,12,15,00,10,-0.30
2016,12,15,00,11,-0.30
2016,12,15,00,12,-0.30
2016,12,15,00,13,-0.30
2016,12,15,00,14,-0.30
2016,12,15,00,15,-0.30
2016,12,15,00,16,-0.30
2016,12,15,00,17,-0.30
2016,12,15,00,18,-0.30
2016,12,15,00,19,-0.30
2016,12,15,00,20,-0.30
2016,12,15,00,21,-0.30
2016,12,15,00,22,-0.30
2016,12,15,00,23,-0.30
2016,12,15,00,24,-0.30
2016,12,15,00,25,-0.30
2016,12,15,00,26,-0.30
2016,12,15,00,27,-0.30
2016,12,15,00,28,-0.30
2016,12,15,00,29,-0.30
2016,12,15,00,30,-0.30
2016,12,15,00,31,-0.40
2016,12,15,00,32,-0.40
2016,12,15,00,33,-0.40
2016,12,15,00,34,-0.40
2016,12,15,00,35,-0.40
2016,12,15,00,36,-0.40
2016,12,15,00,37,-0.40
2016,12,15,00,38,-0.40
2016,12,15,00,39,-0.40
2016,12,15,00,40,-0.40
2016,12,15,00,41,-0.40
2016,12,15,00,42,-0.40
2016,12,15,00,43,-0.40
2016,12,15,00,44,-0.40
2016,12,15,00,45,-0.40
2016,12,15,00,46,-0.40
2016,12,15,00,47,-0.40
2016,12,15,00,48,-0.40
2016,12,15,00,49,-0.40
2016,12,15,00,50,-0.40
2016,12,15,00,51,-0.40
2016,12,15,00,52,-0.40
2016,12,15,00,53,-0.40
2016,12,15,00,54,-0.40
2016,12,15,00,55,-0.40
2016,12,15,00,56,-0.40
2016,12,15,12,16,1.30
2016,12,15,12,17,1.30
2016,12,15,12,18,1.30
2016,12,15,12,19,1.40
2016,12,15,12,20,1.40
2016,12,15,12,21,1.50
2016,12,15,12,22,1.50
2016,12,15,12,23,1.60
2016,12,15,12,24,1.60
2016,12,15,12,25,1.60
2016,12,15,12,26,1.60
2016,12,15,12,27,1.60
2016,12,15,12,28,1.50
2016,12,15,12,29,1.50
2016,12,15,12,30,1.50
2016,12,15,12,31,1.40
2016,12,15,12,32,1.40
2016,12,15,12,33,1.40
2016,12,15,12,34,1.30
2016,12,15,12,35,1.30
2016,12,15,12,36,1.30
2016,12,15,12,37,1.30
2016,12,15,12,38,1.30
2016,12,15,12,39,1.30
2016,12,15,12,40,1.30
2016,12,15,12,41,1.30
2016,12,15,12,42,1.30
2016,12,15,12,43,1.30
2016,12,15,12,44,1.30
2016,12,15,12,45,1.30
2016,12,15,12,46,1.40
2016,12,15,12,47,1.40
2016,12,15,12,48,1.40
2016,12,15,12,49,1.40
2016,12,15,12,50,1.50
2016,12,15,12,51,1.50
2016,12,15,12,52,1.50
2016,12,15,12,53,1.50
2016,12,15,12,54,1.50
2016,12,15,12,55,1.50
2016,12,15,12,56,1.50
2016,12,15,12,57,1.60
2016,12,15,12,58,1.60
2016,12,15,12,59,1.60
2016,12,15,13,00,1.60
2016,12,15,13,01,1.60
2016,12,15,13,02,1.60
2016,12,15,13,03,1.70
2016,12,15,13,04,1.70
2016,12,15,13,05,1.70
2016,12,15,13,06,1.80
2016,12,15,13,07,1.80
2016,12,15,13,08,1.80
2016,12,15,13,09,1.80
2016,12,15,13,10,1.80
2016,12,15,13,11,1.80
2016,12,15,13,12,1.80
2016,12,15,13,13,1.80
2016,12,15,13,14,1.80
2016,12,15,13,15,1.80
2016,12,15,13,16,1.70
2016,12,15,13,17,1.70
2016,12,15,13,18,1.70
2016,12,15,13,19,1.70
2016,12,15,13,20,1.70
2016,12,15,13,21,1.60
2016,12,15,13,22,1.50
2016,12,15,13,23,1.50
2016,12,15,13,24,1.40
2016,12,15,13,25,1.40
2016,12,15,13,26,1.40
2016,12,15,13,27,1.40
2016,12,15,13,28,1.40
2016,12,15,13,29,1.40
2016,12,15,13,30,1.40
2016,12,15,13,31,1.50
2016,12,15,13,32,1.60
2016,12,15,13,33,1.60
2016,12,15,13,34,1.60
2016,12,15,13,35,1.60
2016,12,15,13,36,1.60
2016,12,15,13,37,1.60
2016,12,15,13,38,1.60
2016,12,15,13,39,1.60
2016,12,15,13,40,1.60
2016,12,15,13,41,1.60
2016,12,15,13,42,1.60
2016,12,15,13,43,1.60
2016,12,15,13,44,1.60
2016,12,15,13,45,1.60
2016,12,15,13,46,1.60
2016,12,15,13,47,1.60
2016,12,15,13,48,1.60
2016,12,15,13,49,1.70
2016,12,15,13,50,1.70
2016,12,15,13,51,1.70
2016,12,15,13,52,1.70
2016,12,15,13,53,1.70
2016,12,15,13,54,1.70
2016,12,15,13,55,1.70
2016,12,15,13,56,1.70
2016,12,15,13,57,1.70
2016,12,15,13,58,1.70
2016,12,15,13,59,1.70
2016,12,15,14,00,1.70
2016,12,15,14,01,1.70
2016,12,15,14,02,1.70
2016,12,15,14,03,1.70
2016,12,15,14,04,1.80
2016,12,15,14,05,1.80
2016,12,15,14,06,1.70
2016,12,15,14,07,1.70
2016,12,15,14,08,1.70
2016,12,15,14,09,1.60
2016,12,15,14,10,1.60
2016,12,15,14,11,1.60
2016,12,15,14,12,1.60
2016,12,15,14,13,1.60
2016,12,15,14,14,1.60
2016,12,15,14,15,1.50
2016,12,15,14,16,1.50
2016,12,15,14,17,1.40
2016,12,15,14,18,1.40
2016,12,15,14,19,1.40
2016,12,15,14,20,1.50
2016,12,15,14,21,1.50
2016,12,15,14,22,1.50
2016,12,15,14,23,1.50
2016,12,15,14,24,1.50
2016,12,15,14,25,1.60
2016,12,15,14,26,1.50
2016,12,15,14,27,1.50
2016,12,15,14,28,1.40
2016,12,15,14,29,1.40
2016,12,15,14,30,1.40
2016,12,15,14,31,1.40
2016,12,15,14,32,1.40
2016,12,15,14,33,1.40
2016,12,15,14,34,1.40
2016,12,15,14,35,1.40
2016,12,15,14,36,1.40
2016,12,15,14,37,1.40
2016,12,15,14,38,1.40
2016,12,15,14,39,1.30
2016,12,15,14,40,1.30
2016,12,15,14,41,1.30
2016,12,15,14,42,1.30
2016,12,15,14,43,1.30
2016,12,15,14,44,1.30
2016,12,15,14,45,1.30
2016,12,15,14,46,1.30
2016,12,15,14,47,1.30
2016,12,15,14,48,1.30
2016,12,15,14,49,1.30
2016,12,15,14,50,1.30
2016,12,15,14,51,1.30
2016,12,15,14,52,1.30
2016,12,15,14,53,1.30
2016,12,15,14,54,1.30
2016,12,15,14,55,1.30
2016,12,15,14,56,1.30
2016,12,15,14,57,1.30
2016,12,15,14,58,1.30
2016,12,15,14,59,1.30
2016,12,15,15,00,1.30
2016,12,15,15,01,1.30
2016,12,15,15,02,1.30
2016,12,15,15,03,1.30
2016,12,15,15,04,1.30
2016,12,15,15,05,1.30
2016,12,15,15,06,1.30
2016,12,15,15,07,1.30
2016,12,15,15,08,1.30
2016,12,15,15,09,1.30
2016,12,15,15,10,1.30
2016,12,15,15,11,1.30
2016,12,15,15,12,1.30
2016,12,15,15,13,1.30
2016,12,15,15,14,1.30
2016,12,15,15,15,1.30
2016,12,15,15,16,1.30
2016,12,15,15,17,1.30
2016,12,15,15,18,1.30
2016,12,15,15,19,1.30
2016,12,15,15,20,1.30
2016,12,15,15,21,1.30
2016,12,15,15,22,1.30
2016,12,15,15,23,1.20
2016,12,15,15,24,1.20
2016,12,15,15,25,1.20
2016,12,15,15,26,1.20
2016,12,15,15,27,1.20
2016,12,15,15,28,1.20
2016,12,15,15,29,1.20
2016,12,15,15,30,1.10
2016,12,15,15,31,1.10
2016,12,15,15,32,1.10
2016,12,15,15,33,1.10
2016,12,15,15,34,1.10
2016,12,15,15,35,1.10
2016,12,15,15,36,1.10
2016,12,15,15,37,1.00
2016,12,15,15,38,1.00
2016,12,15,15,39,1.00
2016,12,15,15,40,1.00
2016,12,15,15,41,1.00
2016,12,15,15,42,1.00
2016,12,15,15,43,0.90
2016,12,15,15,44,0.90
2016,12,15,15,45,0.90
2016,12,15,15,46,0.90
2016,12,15,15,47,0.90
2016,12,15,15,48,0.90
2016,12,15,15,49,0.90
2016,12,15,15,50,0.80
2016,12,15,15,51,0.80
2016,12,15,15,52,0.80
2016,12,15,15,53,0.80
2016,12,15,15,54,0.70
2016,12,15,15,55,0.70
2016,12,15,15,56,0.70
2016,12,15,15,57,0.60
2016,12,15,15,58,0.60
2016,12,15,15,59,0.60
2016,12,15,16,00,0.60
2016,12,15,16,01,0.50
2016,12,15,16,02,0.50
2016,12,15,16,03,0.40
2016,12,15,16,04,0.40
2016,12,15,16,05,0.40
2016,12,15,16,06,0.40
2016,12,15,16,07,0.30
2016,12,15,16,08,0.30
2016,12,15,16,09,0.30
2016,12,15,16,10,0.30
2016,12,15,16,11,0.30
2016,12,15,16,12,0.20
2016,12,15,16,13,0.20
2016,12,15,16,14,0.20
2016,12,15,16,15,0.20
2016,12,15,16,16,0.10
2016,12,15,16,17,0.10
2016,12,15,16,18,0.10
2016,12,15,16,19,0.10
2016,12,15,16,20,0.10
2016,12,15,16,21,0.00
2016,12,15,16,22,0.00
2016,12,15,16,23,0.00
2016,12,15,16,24,0.00
2016,12,15,16,25,-0.10
2016,12,15,16,26,-0.10
2016,12,15,16,27,-0.10
2016,12,15,16,28,-0.10
2016,12,15,16,29,-0.10
2016,12,15,16,30,-0.10
2016,12,15,16,31,-0.20
2016,12,15,16,32,-0.20
2016,12,15,16,33,-0.20
2016,12,15,16,34,-0.20
2016,12,15,16,35,-0.20
2016,12,15,16,36,-0.20
2016,12,15,16,37,-0.20
2016,12,15,16,38,-0.30
2016,12,15,16,39,-0.30
2016,12,15,16,40,-0.30
2016,12,15,16,41,-0.30
2016,12,15,16,42,-0.30
2016,12,15,16,43,-0.30
2016,12,15,16,44,-0.30
2016,12,15,16,45,-0.30
2016,12,15,16,46,-0.30
2016,12,15,16,47,-0.30
2016,12,15,16,48,-0.30
2016,12,15,16,49,-0.40
2016,12,15,16,50,-0.40
2016,12,15,16,51,-0.40
2016,12,15,16,52,-0.40
2016,12,15,16,53,-0.40
2016,12,15,16,54,-0.40
2016,12,15,16,55,-0.40
2016,12,15,16,56,-0.40
2016,12,15,16,57,-0.40
2016,12,15,16,58,-0.40
2016,12,15,16,59,-0.40
2016,12,15,17,00,-0.40
2016,12,15,17,01,-0.40
2016,12,15,17,02,-0.40
2016,12,15,17,03,-0.50
2016,12,15,17,04,-0.50
2016,12,15,17,05,-0.50
2016,12,15,17,06,-0.50
2016,12,15,17,07,-0.50
2016,12,15,17,08,-0.50
2016,12,15,17,09,-0.50
2016,12,15,17,10,-0.50
2016,12,15,17,11,-0.60
2016,12,15,17,12,-0.60
2016,12,15,17,13,-0.60
2016,12,15,17,14,-0.60
2016,12,15,17,15,-0.60
2016,12,15,17,16,-0.60
2016,12,15,17,17,-0.60
2016,12,15,17,18,-0.60
2016,12,15,17,19,-0.60
2016,12,15,17,20,-0.60
2016,12,15,17,21,-0.60
2016,12,15,17,22,-0.60
2016,12,15,17,23,-0.60
2016,12,15,17,24,-0.60
2016,12,15,17,25,-0.60
2016,12,15,17,26,-0.60
2016,12,15,17,27,-0.60
2016,12,15,17,28,-0.60
2016,12,15,17,29,-0.60
2016,12,15,17,30,-0.70
2016,12,15,17,31,-0.70
2016,12,15,17,32,-0.70
2016,12,15,17,33,-0.70
2016,12,15,17,34,-0.70
2016,12,15,17,35,-0.70
2016,12,15,17,36,-0.80
2016,12,15,17,37,-0.80
2016,12,15,17,38,-0.80
2016,12,15,17,39,-0.80
2016,12,15,17,40,-0.80
2016,12,15,17,41,-0.80
2016,12,15,17,42,-0.80
2016,12,15,17,43,-0.80
2016,12,15,17,44,-0.80
2016,12,15,17,45,-0.90
2016,12,15,17,46,-0.90
2016,12,15,17,47,-0.90
2016,12,15,17,48,-0.90
2016,12,15,17,49,-0.90
2016,12,15,17,50,-0.90
2016,12,15,17,51,-0.90
2016,12,15,17,52,-0.90
2016,12,15,17,53,-0.90
2016,12,15,17,54,-0.90
2016,12,15,17,55,-1.00
2016,12,15,17,56,-1.00
2016,12,15,17,57,-1.00
2016,12,15,17,58,-1.00
2016,12,15,17,59,-1.00
2016,12,15,18,00,-1.00
2016,12,15,18,01,-1.00
2016,12,15,18,02,-1.10
2016,12,15,18,03,-1.10
2016,12,15,18,04,-1.10
2016,12,15,18,05,-1.10
2016,12,15,18,06,-1.10
2016,12,15,18,07,-1.10
2016,12,15,18,08,-1.10
2016,12,15,18,09,-1.10
2016,12,15,18,10,-1.10
2016,12,15,18,11,-1.20
2016,12,15,18,12,-1.20
2016,12,15,18,13,-1.20
2016,12,15,18,14,-1.20
2016,12,15,18,15,-1.20
2016,12,15,18,16,-1.20
2016,12,15,18,17,-1.30
2016,12,15,18,18,-1.30
2016,12,15,18,19,-1.30
2016,12,15,18,20,-1.30
2016,12,15,18,21,-1.30
2016,12,15,18,22,-1.30
2016,12,15,18,23,-1.40
2016,12,15,18,24,-1.40
2016,12,15,18,25,-1.40
2016,12,15,18,26,-1.40
2016,12,15,18,27,-1.40
2016,12,15,18,28,-1.50
2016,12,15,18,29,-1.50
2016,12,15,18,30,-1.50
2016,12,15,18,31,-1.50
2016,12,15,18,32,-1.60
2016,12,15,18,33,-1.60
2016,12,15,18,34,-1.60
2016,12,15,18,35,-1.60
2016,12,15,18,36,-1.70
2016,12,15,18,37,-1.70
2016,12,15,18,38,-1.70
2016,12,15,18,39,-1.70
2016,12,15,18,40,-1.70
2016,12,15,18,41,-1.70
2016,12,15,18,42,-1.70
2016,12,15,18,43,-1.70
2016,12,15,18,44,-1.70
2016,12,15,18,45,-1.70
2016,12,15,18,46,-1.70
2016,12,15,18,47,-1.70
2016,12,15,18,48,-1.70
2016,12,15,18,49,-1.70
2016,12,15,18,50,-1.70
2016,12,15,18,51,-1.70
2016,12,15,18,52,-1.70
2016,12,15,18,53,-1.70
2016,12,15,18,54,-1.80
2016,12,15,18,55,-1.80
2016,12,15,18,56,-1.80
2016,12,15,18,57,-1.80
2016,12,15,18,58,-1.80
2016,12,15,18,59,-1.80
2016,12,15,19,00,-1.80
2016,12,15,19,01,-1.80
2016,12,15,19,02,-1.80
2016,12,15,19,03,-1.80
2016,12,15,19,04,-1.80
2016,12,15,19,05,-1.80
2016,12,15,19,06,-1.80
2016,12,15,19,07,-1.80
2016,12,15,19,08,-1.80
2016,12,15,19,09,-1.80
2016,12,15,19,10,-1.80
2016,12,15,19,11,-1.80
2016,12,15,19,12,-1.80
2016,12,15,19,13,-1.80
2016,12,15,19,14,-1.80
2016,12,15,19,15,-1.80
2016,12,15,19,16,-1.80
2016,12,15,19,17,-1.80
2016,12,15,19,18,-1.80
2016,12,15,19,19,-1.80
2016,12,15,19,20,-1.80
2016,12,15,19,21,-1.90
2016,12,15,19,22,-1.90
2016,12,15,19,23,-1.90
2016,12,15,19,24,-1.90
2016,12,15,19,25,-1.90
2016,12,15,19,26,-1.90
2016,12,15,19,27,-1.90
2016,12,15,19,28,-1.90
2016,12,15,19,29,-2.00
2016,12,15,19,30,-1.90
2016,12,15,19,31,-1.90
2016,12,15,19,32,-2.00
2016,12,15,19,33,-2.00
2016,12,15,19,34,-2.00
2016,12,15,19,35,-2.00
2016,12,15,19,36,-2.00
2016,12,15,19,37,-2.00
2016,12,15,19,38,-2.10
2016,12,15,19,39,-2.10
2016,12,15,19,40,-2.10
2016,12,15,19,41,-2.10
2016,12,15,19,42,-2.10
2016,12,15,19,43,-2.10
2016,12,15,19,44,-2.10
2016,12,15,19,45,-2.10
2016,12,15,19,46,-2.10
2016,12,15,19,47,-2.10
2016,12,15,19,48,-2.10
2016,12,15,19,49,-2.10
2016,12,15,19,50,-2.10
2016,12,15,19,51,-2.10
2016,12,15,19,52,-2.10
2016,12,15,19,53,-2.10
2016,12,15,19,54,-2.10
2016,12,15,19,55,-2.10
2016,12,15,19,56,-2.10
2016,12,15,19,57,-2.10
2016,12,15,19,58,-2.10
2016,12,15,19,59,-2.10
2016,12,15,20,00,-2.10
2016,12,15,20,01,-2.10
2016,12,15,20,02,-2.10
2016,12,15,20,03,-2.10
2016,12,15,20,04,-2.10
2016,12,15,20,05,-2.10
2016,12,15,20,06,-2.10
2016,12,15,20,07,-2.10
2016,12,15,20,08,-2.10
2016,12,15,20,09,-2.10
2016,12,15,20,10,-2.10
2016,12,15,20,11,-2.10
2016,12,15,20,12,-2.10
2016,12,15,20,13,-2.10
2016,12,15,20,14,-2.10
2016,12,15,20,15,-2.10
2016,12,15,20,16,-2.10
2016,12,15,20,17,-2.10
2016,12,15,20,18,-2.20
2016,12,15,20,19,-2.20
2016,12,15,20,20,-2.20
2016,12,15,20,21,-2.20
2016,12,15,20,22,-2.20
2016,12,15,20,23,-2.10
2016,12,15,20,24,-2.20
2016,12,15,20,25,-2.20
2016,12,15,20,26,-2.20
2016,12,15,20,27,-2.20
2016,12,15,20,28,-2.20
2016,12,15,20,29,-2.20
2016,12,15,20,30,-2.20
2016,12,15,20,31,-2.20
2016,12,15,20,32,-2.10
2016,12,15,20,33,-2.10
2016,12,15,20,34,-2.10
2016,12,15,20,35,-2.10
2016,12,15,20,36,-2.10
2016,12,15,20,37,-2.00
2016,12,15,20,38,-2.00
2016,12,15,20,39,-2.00
2016,12,15,20,40,-2.00
2016,12,15,20,41,-2.00
2016,12,15,20,42,-1.90
2016,12,15,20,43,-1.90
2016,12,15,20,44,-1.90
2016,12,15,20,45,-1.90
2016,12,15,20,46,-1.90
2016,12,15,20,47,-1.90
2016,12,15,20,48,-1.90
2016,12,15,20,49,-1.90
2016,12,15,20,50,-1.90
2016,12,15,20,51,-1.90
2016,12,15,20,52,-1.90
2016,12,15,20,53,-1.90
2016,12,15,20,54,-1.90
2016,12,15,20,55,-1.90
2016,12,15,20,56,-1.90
2016,12,15,20,57,-1.90
2016,12,15,20,58,-1.90
2016,12,15,20,59,-1.90
2016,12,15,21,00,-1.80
2016,12,15,21,01,-1.90
2016,12,15,21,02,-1.90
2016,12,15,21,03,-1.80
2016,12,15,21,04,-1.80
2016,12,15,21,05,-1.80
2016,12,15,21,06,-1.80
2016,12,15,21,07,-1.80
2016,12,15,21,08,-1.80
2016,12,15,21,09,-1.80
2016,12,15,21,10,-1.80
2016,12,15,21,11,-1.80
2016,12,15,21,12,-1.80
2016,12,15,21,13,-1.80
2016,12,15,21,14,-1.80
2016,12,15,21,15,-1.80
2016,12,15,21,16,-1.80
2016,12,15,21,17,-1.80
2016,12,15,21,18,-1.80
2016,12,15,21,19,-1.80
2016,12,15,21,20,-1.70
2016,12,15,21,21,-1.70
2016,12,15,21,22,-1.70
2016,12,15,21,23,-1.70
2016,12,15,21,24,-1.70
2016,12,15,21,25,-1.70
2016,12,15,21,26,-1.70
2016,12,15,21,27,-1.70
2016,12,15,21,28,-1.70
2016,12,15,21,29,-1.70
2016,12,15,21,30,-1.70
2016,12,15,21,31,-1.70
2016,12,15,21,32,-1.70
2016,12,15,21,33,-1.70
2016,12,15,21,34,-1.70
2016,12,15,21,35,-1.70
2016,12,15,21,36,-1.70
2016,12,15,21,37,-1.70
2016,12,15,21,38,-1.70
2016,12,15,21,39,-1.70
2016,12,15,21,40,-1.70
2016,12,15,21,41,-1.70
2016,12,15,21,42,-1.70
2016,12,15,21,43,-1.70
2016,12,15,21,44,-1.70
2016,12,15,21,45,-1.70
2016,12,15,21,46,-1.70
2016,12,15,21,47,-1.70
2016,12,15,21,48,-1.70
2016,12,15,21,49,-1.70
2016,12,15,21,50,-1.70
2016,12,15,21,51,-1.70
2016,12,15,21,52,-1.70
2016,12,15,21,53,-1.70
2016,12,15,21,54,-1.70
2016,12,15,21,55,-1.70
2016,12,15,21,56,-1.70
2016,12,15,21,57,-1.70
2016,12,15,21,58,-1.80
2016,12,15,21,59,-1.80
2016,12,15,22,00,-1.80
2016,12,15,22,01,-1.70
2016,12,15,22,02,-1.70
2016,12,15,22,03,-1.70
2016,12,15,22,04,-1.70
2016,12,15,22,05,-1.70
2016,12,15,22,06,-1.70
2016,12,15,22,07,-1.70
2016,12,15,22,08,-1.70
2016,12,15,22,09,-1.70
2016,12,15,22,10,-1.70
2016,12,15,22,11,-1.70
2016,12,15,22,12,-1.70
2016,12,15,22,13,-1.70
2016,12,15,22,14,-1.70
2016,12,15,22,15,-1.60
2016,12,15,22,16,-1.60
2016,12,15,22,17,-1.60
2016,12,15,22,18,-1.60
2016,12,15,22,19,-1.60
2016,12,15,22,20,-1.60
2016,12,15,22,21,-1.50
2016,12,15,22,22,-1.40
2016,12,15,22,23,-1.40
2016,12,15,22,24,-1.40
2016,12,15,22,25,-1.40
2016,12,15,22,26,-1.40
2016,12,15,22,27,-1.30
2016,12,15,22,28,-1.30
2016,12,15,22,29,-1.30
2016,12,15,22,30,-1.30
2016,12,15,22,31,-1.30
2016,12,15,22,32,-1.20
2016,12,15,22,33,-1.20
2016,12,15,22,34,-1.20
2016,12,15,22,35,-1.20
2016,12,15,22,36,-1.10
2016,12,15,22,37,-1.10
2016,12,15,22,38,-1.10
2016,12,15,22,39,-1.10
2016,12,15,22,40,-1.10
2016,12,15,22,41,-1.10
2016,12,15,22,42,-1.10
2016,12,15,22,43,-1.10
2016,12,15,22,44,-1.10
2016,12,15,22,45,-1.00
2016,12,15,22,46,-1.00
2016,12,15,22,47,-1.00
2016,12,15,22,48,-0.90
2016,12,15,22,49,-0.90
2016,12,15,22,50,-0.90
2016,12,15,22,51,-0.90
2016,12,15,22,52,-0.90
2016,12,15,22,53,-0.90
2016,12,15,22,54,-0.90
2016,12,15,22,55,-0.90
2016,12,15,22,56,-0.80
2016,12,15,22,57,-0.90
2016,12,15,22,58,-0.80
2016,12,15,22,59,-0.80
2016,12,15,23,00,-0.90
2016,12,15,23,01,-0.90
2016,12,15,23,02,-0.90
2016,12,15,23,03,-0.90
2016,12,15,23,04,-0.90
2016,12,15,23,05,-0.90
2016,12,15,23,06,-0.90
2016,12,15,23,07,-0.90
2016,12,15,23,08,-0.80
2016,12,15,23,09,-0.80
2016,12,15,23,10,-0.80
2016,12,15,23,11,-0.80
2016,12,15,23,12,-0.80
2016,12,15,23,13,-0.80
2016,12,15,23,14,-0.80
2016,12,15,23,15,-0.70
2016,12,15,23,16,-0.70
2016,12,15,23,17,-0.70
2016,12,15,23,18,-0.70
2016,12,15,23,19,-0.70
2016,12,15,23,20,-0.70
2016,12,15,23,21,-0.60
2016,12,15,23,22,-0.60
2016,12,15,23,23,-0.60
2016,12,15,23,24,-0.60
2016,12,15,23,25,-0.60
2016,12,15,23,26,-0.60
2016,12,15,23,27,-0.60
2016,12,15,23,28,-0.60
2016,12,15,23,29,-0.60
2016,12,15,23,30,-0.60
2016,12,15,23,31,-0.60
2016,12,15,23,32,-0.60
2016,12,15,23,33,-0.50
2016,12,15,23,34,-0.50
2016,12,15,23,35,-0.60
2016,12,15,23,36,-0.50
2016,12,15,23,37,-0.60
2016,12,15,23,38,-0.60
2016,12,15,23,39,-0.60
2016,12,15,23,40,-0.60
2016,12,15,23,41,-0.60
2016,12,15,23,42,-0.60
2016,12,15,23,43,-0.60
2016,12,15,23,44,-0.60
2016,12,15,23,45,-0.60
2016,12,15,23,46,-0.60
2016,12,15,23,47,-0.60
